World > North America > United States > Pennsylvania > Climax

Hourly Climax, PA Regional Weather

Feedback E-mail the Weather

Quick WX

Climax, PA Weather Maps

°F °C°F °C
Climax Weather Map
UTC Time: 8/8/2022, 04:01
Your Time:

Climax, PA Regional Weather

Expires:202208080400;;652693
ASUS41 KCTP 080310
RWRCTP

REGIONAL WEATHER ROUNDUP
NATIONAL WEATHER SERVICE STATE COLLEGE PA
1100 PM EDT SUN AUG 07 2022

Note: "fair" indicates few or no clouds below 12,000 feet with no 
significant weather and/or obstructions to visibility.

* = STATION THAT DOES NOT REPORT PRECIPITATION /E.G. RAIN...SNOW...ETC/
    THUNDER OR FOG.


PAZ002>004-007>009-013>016-020>023-029>032-080400-
WESTERN PENNSYLVANIA
  
CITY           SKY/WX    TMP DP  RH WIND       PRES   REMARKS
ERIE           MOCLDY    77  70  79 S8        30.04S                  
MEADVILLE      PTCLDY    74  69  85 S3        30.10S                  
FRANKLIN       PTCLDY    72  70  93 S7        30.13S                  
NEW CASTLE     FAIR      73  70  90 CALM      30.11S                  
BEAVER COUNTY  CLEAR     74  68  82 S5        30.13S                  
BUTLER         CLEAR    N/A N/A N/A S3        30.13S                  
PITTSBURGH INT PTCLDY    73  67  81 CALM      30.12S                  
PITTSBURGH     CLEAR     74  68  81 S5        30.13                   
INDIANA*       CLEAR     75  72  88 CALM      30.17F                  
LATROBE        CLEAR     75  72  88 CALM      30.14F                  
WASHINGTON CO* CLEAR     70  70 100 W3        30.16S                  
$$


SKY/WX - Weather  TMP - Temperature  DP - Dew Point  RH - Humidity
WIND - Wind Direction/Speed PRES - Barometric Pressure VSB - Visibility
WCI - Wind Chill Index E13G22 Wind - East Wind 13 mph/Gusts of 22 mph

Trending Headlines

Climax Radar Loop



Climax Quick Facts


National Two Day Weather Forecast


E-mail the Climax Weather Forecast

Voice your opinion or tell us about page issues...